MST,Max TemperatureF,Mean TemperatureF,Min TemperatureF,Max Dew PointF,MeanDew PointF,Min DewpointF,Max Humidity, Mean Humidity, Min Humidity, Max Sea Level PressureIn, Mean Sea Level PressureIn, Min Sea Level PressureIn, Max VisibilityMiles, Mean VisibilityMiles, Min VisibilityMiles, Max Wind SpeedMPH, Mean Wind SpeedMPH, Max Gust SpeedMPH,PrecipitationIn, CloudCover, Events, WindDirDegrees
2014-1-1,38,26,14,32,24,12,100,76,52,30.43,30.16,29.85,10,5,0,26,14,31,0.07,7,Fog-Rain-Snow,345
2014-1-2,38,25,11,23,18,8,92,70,48,30.42,30.28,30.03,10,10,10,20,12,24,0.00,0,,206
2014-1-3,59,42,24,27,23,19,69,46,23,30.00,29.72,29.53,10,10,10,28,14,35,0.00,0,,252
2014-1-4,31,20,8,23,15,1,92,74,56,30.24,29.97,29.70,10,5,1,32,16,39,0.02,7,Snow,8
2014-1-5,13,1,-12,7,0,-15,88,76,63,30.68,30.31,30.04,10,6,1,21,11,24,T,7,Snow,17
2014-1-6,24,7,-10,8,-1,-14,87,66,45,30.59,30.44,30.20,10,10,10,18,12,23,0.00,0,,234
2014-1-7,43,28,12,26,17,5,76,55,33,30.18,30.08,30.01,10,10,10,22,13,26,0.00,4,,210
2014-1-8,38,28,18,24,20,15,88,70,52,30.18,30.12,30.04,10,10,10,15,9,19,0.00,1,,164
2014-1-9,44,32,20,26,22,16,88,66,43,30.01,29.86,29.65,10,10,8,15,9,18,0.00,1,,225
2014-1-10,43,35,27,26,17,11,78,55,32,29.87,29.72,29.65,10,8,1,37,21,46,T,5,Snow,312
2014-1-11,54,40,26,26,22,19,63,46,28,30.01,29.84,29.59,10,10,10,24,14,30,0.00,2,,242
2014-1-12,48,36,24,25,17,5,69,45,20,29.95,29.69,29.52,10,10,10,36,18,45,0.00,2,,294
2014-1-13,48,35,21,18,14,11,68,46,24,29.99,29.95,29.90,10,10,10,33,17,45,0.00,5,,281
2014-1-14,40,32,24,26,15,6,92,61,29,30.44,30.28,29.97,10,6,1,40,25,52,T,6,Snow,333
2014-1-15,52,36,20,20,18,15,91,60,28,30.30,30.13,29.99,10,10,10,25,13,31,0.00,1,,273
2014-1-16,41,33,25,20,15,12,81,56,30,30.32,30.20,30.04,10,7,1,44,23,53,0.00,2,,334
2014-1-17,50,35,20,18,15,12,77,50,23,30.26,30.15,30.04,10,10,10,24,12,31,0.00,0,,278
2014-1-18,49,38,26,18,15,12,58,41,23,30.22,30.14,30.04,10,10,7,39,21,48,0.00,1,,297
2014-1-19,62,45,28,17,13,8,58,35,12,30.07,29.99,29.91,10,10,10,23,14,30,0.00,0,,265
2014-1-20,44,32,20,18,14,11,68,49,29,30.44,30.26,29.94,10,10,10,36,17,42,0.00,0,,327
2014-1-21,60,40,19,15,8,-13,68,37,5,30.36,30.20,30.06,10,10,10,33,14,39,0.00,0,,290
2014-1-22,42,26,9,23,14,6,84,58,32,30.47,30.24,30.11,10,6,1,22,13,27,0.01,5,Snow,60
2014-1-23,16,10,3,7,3,-1,91,79,67,30.79,30.51,30.34,10,5,1,20,12,23,0.01,6,Snow,120
2014-1-24,46,28,9,25,14,1,76,56,36,30.43,30.28,30.13,10,10,10,31,17,37,0.00,0,,274
2014-1-25,57,44,30,25,21,17,72,49,26,30.16,30.02,29.88,10,10,10,29,15,36,0.00,0,,285
2014-1-26,54,35,16,25,15,-5,78,53,28,30.25,29.96,29.76,10,10,10,40,15,54,T,3,,333
2014-1-27,16,9,2,11,6,-6,96,69,42,30.41,30.20,30.10,10,3,0,22,7,27,0.01,8,Fog-Snow,121
2014-1-28,21,10,-1,8,3,-3,95,70,45,30.48,30.27,30.17,10,5,0,17,11,20,T,5,Fog-Snow,263
2014-1-29,51,30,9,25,14,2,73,49,24,30.15,29.85,29.40,10,10,10,24,13,29,0.00,1,,226
2014-1-30,47,33,19,32,26,17,100,69,37,29.84,29.70,29.41,10,5,0,40,16,49,0.09,7,Fog-Rain-Snow,76
2014-1-31,19,16,12,17,14,12,96,90,84,30.01,29.85,29.71,10,6,0,22,14,26,0.03,8,Fog-Snow,127